^^
Saratoga-Weather Station Historical Data
Daily Summary for September 19, 2021 Units:  Metric    English   Both
Daily Weekly Monthly Yearly Custom
  High: Low: Average:
Temperature: 6.7 °C 6.3 °C 6.5 °C
Dew Point: 6 °C 5.4 °C 5.6 °C
Humidity: 95% 93% 94%
Wind Speed: 13km/h 0km/h 1.6km/h
Wind Gust: 12.9km/h - -
Wind- - West
Pressure: 1032.5 hPa 1031.2 hPa -
Precipitation: 0.0 mm    
Historical Graphs
 
 
Tabular Data for September 19, 2021
Time Temperature Dew Point Pressure Wind Wind Speed Wind Gust Humidity Rainfall Rate (Hourly) solar
00:03 6.3 °C 5.4 °C 1032.2 hPa WNW 6.4 km/h 6.4 km/h 94% 0.0 mm 0 W/m2
00:08 6.3 °C 5.4 °C 1031.8 hPa WNW 3.2 km/h 6.4 km/h 94% 0.0 mm 0 W/m2
00:13 6.3 °C 5.4 °C 1031.8 hPa West 3.2 km/h 6.4 km/h 94% 0.0 mm 0 W/m2
00:18 6.3 °C 5.4 °C 1031.8 hPa Calm   3.2 km/h 94% 0.0 mm 0 W/m2
00:23 6.3 °C 5.4 °C 1031.8 hPa WNW 3.2 km/h 3.2 km/h 94% 0.0 mm 0 W/m2
00:28 6.3 °C 5.4 °C 1031.8 hPa NW 1.4 km/h 4.8 km/h 94% 0.0 mm 0 W/m2
00:33 6.3 °C 5.4 °C 1031.8 hPa Calm   1.6 km/h 94% 0.0 mm 0 W/m2
00:38 6.3 °C 5.4 °C 1031.8 hPa WSW 1.4 km/h 4.8 km/h 94% 0.0 mm 0 W/m2
00:43 6.3 °C 5.4 °C 1031.8 hPa NW 1.4 km/h 4.8 km/h 94% 0.0 mm 0 W/m2
00:48 6.3 °C 5.4 °C 1031.8 hPa WSW 1.4 km/h 8 km/h 94% 0.0 mm 0 W/m2
00:53 6.3 °C 5.4 °C 1031.8 hPa WNW 4.7 km/h 6.4 km/h 94% 0.0 mm 0 W/m2
00:58 6.3 °C 5.4 °C 1031.8 hPa Calm   6.4 km/h 94% 0.0 mm 0 W/m2
01:03 6.3 °C 5.4 °C 1031.8 hPa WNW 1.4 km/h 6.4 km/h 94% 0.0 mm 0 W/m2
01:08 6.3 °C 5.4 °C 1031.8 hPa WNW 1.4 km/h 4.8 km/h 94% 0.0 mm 0 W/m2
01:13 6.3 °C 5.4 °C 1031.5 hPa Calm   8 km/h 94% 0.0 mm 0 W/m2
01:18 6.3 °C 5.4 °C 1031.5 hPa WNW 1.4 km/h 4.8 km/h 94% 0.0 mm 0 W/m2
01:23 6.3 °C 5.4 °C 1031.5 hPa West 1.4 km/h 4.8 km/h 94% 0.0 mm 0 W/m2
01:28 6.4 °C 5.5 °C 1031.5 hPa NW 1.4 km/h 3.2 km/h 94% 0.0 mm 0 W/m2
01:33 6.4 °C 5.5 °C 1031.8 hPa Calm   3.2 km/h 94% 0.0 mm 0 W/m2
01:38 6.4 °C 5.5 °C 1031.8 hPa Calm     94% 0.0 mm 0 W/m2
01:43 6.4 °C 5.5 °C 1031.8 hPa Calm   3.2 km/h 94% 0.0 mm 0 W/m2
01:48 6.4 °C 5.5 °C 1031.8 hPa NNE 3.2 km/h 4.8 km/h 94% 0.0 mm 0 W/m2
01:53 6.4 °C 5.5 °C 1031.5 hPa West 3.2 km/h 3.2 km/h 94% 0.0 mm 0 W/m2
01:58 6.4 °C 5.5 °C 1031.5 hPa West 1.4 km/h 9.7 km/h 94% 0.0 mm 0 W/m2
02:03 6.4 °C 5.5 °C 1031.5 hPa West 13 km/h 12.9 km/h 94% 0.0 mm 0 W/m2
02:08 6.5 °C 5.6 °C 1031.5 hPa WSW 4.7 km/h 11.3 km/h 94% 0.0 mm 0 W/m2
02:13 6.5 °C 5.4 °C 1031.5 hPa WNW 1.4 km/h 6.4 km/h 93% 0.0 mm 0 W/m2
02:18 6.6 °C 5.5 °C 1031.5 hPa NW 3.2 km/h 11.3 km/h 93% 0.0 mm 0 W/m2
02:23 6.6 °C 5.5 °C 1031.5 hPa WNW 3.2 km/h 4.8 km/h 93% 0.0 mm 0 W/m2
02:28 6.6 °C 5.5 °C 1031.5 hPa West 3.2 km/h 4.8 km/h 93% 0.0 mm 0 W/m2
02:33 6.6 °C 5.5 °C 1031.5 hPa WNW 4.7 km/h 6.4 km/h 93% 0.0 mm 0 W/m2
02:38 6.6 °C 5.5 °C 1031.5 hPa SSW 4.7 km/h 11.3 km/h 93% 0.0 mm 0 W/m2
02:43 6.6 °C 5.5 °C 1031.5 hPa SW 1.4 km/h 9.7 km/h 93% 0.0 mm 0 W/m2
02:48 6.6 °C 5.5 °C 1031.5 hPa NW 3.2 km/h 6.4 km/h 93% 0.0 mm 0 W/m2
02:53 6.5 °C 5.4 °C 1031.5 hPa WNW 3.2 km/h 6.4 km/h 93% 0.0 mm 0 W/m2
02:58 6.5 °C 5.4 °C 1031.5 hPa WSW 4.7 km/h 6.4 km/h 93% 0.0 mm 0 W/m2
03:03 6.5 °C 5.4 °C 1031.5 hPa SSW 1.4 km/h 6.4 km/h 93% 0.0 mm 0 W/m2
03:08 6.4 °C 5.4 °C 1031.5 hPa SW 9.7 km/h 11.3 km/h 93% 0.0 mm 0 W/m2
03:13 6.5 °C 5.4 °C 1031.5 hPa West 1.4 km/h 6.4 km/h 93% 0.0 mm 0 W/m2
03:18 6.5 °C 5.4 °C 1031.5 hPa WSW 1.4 km/h 3.2 km/h 93% 0.0 mm 0 W/m2
03:23 6.5 °C 5.4 °C 1031.5 hPa WSW 1.4 km/h 9.7 km/h 93% 0.0 mm 0 W/m2
03:28 6.5 °C 5.4 °C 1031.5 hPa NW 7.9 km/h 11.3 km/h 93% 0.0 mm 0 W/m2
03:33 6.6 °C 5.5 °C 1031.2 hPa WNW 1.4 km/h 6.4 km/h 93% 0.0 mm 0 W/m2
03:38 6.6 °C 5.5 °C 1031.5 hPa West 4.7 km/h 9.7 km/h 93% 0.0 mm 0 W/m2
03:43 6.6 °C 5.5 °C 1031.5 hPa West 1.4 km/h 9.7 km/h 93% 0.0 mm 0 W/m2
03:48 6.6 °C 5.5 °C 1031.2 hPa WNW 1.4 km/h 3.2 km/h 93% 0.0 mm 0 W/m2
03:53 6.6 °C 5.5 °C 1031.5 hPa Calm   3.2 km/h 93% 0.0 mm 0 W/m2
03:58 6.6 °C 5.5 °C 1031.5 hPa Calm   3.2 km/h 93% 0.0 mm 0 W/m2
04:03 6.6 °C 5.5 °C 1031.5 hPa WNW 1.4 km/h 3.2 km/h 93% 0.0 mm 0 W/m2
04:08 6.6 °C 5.5 °C 1031.5 hPa Calm   3.2 km/h 93% 0.0 mm 0 W/m2
04:13 6.6 °C 5.5 °C 1031.2 hPa West 1.4 km/h 4.8 km/h 93% 0.0 mm 0 W/m2
04:18 6.6 °C 5.5 °C 1031.2 hPa West 4.7 km/h 4.8 km/h 93% 0.0 mm 0 W/m2
04:23 6.7 °C 5.6 °C 1031.2 hPa West 3.2 km/h 4.8 km/h 93% 0.0 mm 0 W/m2
04:28 6.7 °C 5.6 °C 1031.2 hPa Calm   3.2 km/h 93% 0.0 mm 0 W/m2
04:33 6.7 °C 5.6 °C 1031.5 hPa Calm   3.2 km/h 93% 0.0 mm 0 W/m2
04:38 6.7 °C 5.6 °C 1031.5 hPa Calm     93% 0.0 mm 0 W/m2
04:43 6.7 °C 5.6 °C 1031.5 hPa NNW 1.4 km/h 3.2 km/h 93% 0.0 mm 0 W/m2
04:48 6.7 °C 5.6 °C 1031.5 hPa NNW 1.4 km/h 1.6 km/h 93% 0.0 mm 0 W/m2
04:53 6.6 °C 5.5 °C 1031.5 hPa Calm   3.2 km/h 93% 0.0 mm 0 W/m2
04:58 6.6 °C 5.5 °C 1031.5 hPa Calm   1.6 km/h 93% 0.0 mm 0 W/m2
05:03 6.6 °C 5.5 °C 1031.5 hPa Calm     93% 0.0 mm 0 W/m2
05:08 6.6 °C 5.5 °C 1031.5 hPa West 1.4 km/h 1.6 km/h 93% 0.0 mm 0 W/m2
05:13 6.5 °C 5.6 °C 1031.8 hPa Calm   3.2 km/h 94% 0.0 mm 0 W/m2
05:18 6.5 °C 5.6 °C 1031.8 hPa NW 3.2 km/h 3.2 km/h 94% 0.0 mm 0 W/m2
05:23 6.4 °C 5.5 °C 1031.5 hPa Calm   1.6 km/h 94% 0.0 mm 0 W/m2
05:28 6.5 °C 5.6 °C 1031.5 hPa Calm   1.6 km/h 94% 0.0 mm 0 W/m2
05:33 6.4 °C 5.5 °C 1031.5 hPa Calm   1.6 km/h 94% 0.0 mm 0 W/m2
05:38 6.4 °C 5.5 °C 1031.5 hPa Calm     94% 0.0 mm 0 W/m2
05:44 6.4 °C 5.5 °C 1031.5 hPa Calm     94% 0.0 mm 0 W/m2
05:49 6.4 °C 5.5 °C 1031.5 hPa Calm     94% 0.0 mm 0 W/m2
05:54 6.4 °C 5.5 °C 1031.5 hPa Calm     94% 0.0 mm 0 W/m2
05:59 6.4 °C 5.5 °C 1031.5 hPa Calm     94% 0.0 mm 0 W/m2
06:04 6.4 °C 5.5 °C 1031.5 hPa Calm   4.8 km/h 94% 0.0 mm 0 W/m2
06:09 6.4 °C 5.5 °C 1031.5 hPa Calm   1.6 km/h 94% 0.0 mm 0 W/m2
06:14 6.4 °C 5.5 °C 1031.5 hPa Calm     94% 0.0 mm 0 W/m2
06:19 6.4 °C 5.5 °C 1031.5 hPa NW 1.4 km/h 1.6 km/h 94% 0.0 mm 0 W/m2
06:24 6.3 °C 5.4 °C 1031.5 hPa Calm     94% 0.0 mm 0 W/m2
06:29 6.4 °C 5.5 °C 1031.5 hPa Calm   1.6 km/h 94% 0.0 mm 0 W/m2
06:34 6.3 °C 5.6 °C 1031.5 hPa Calm     95% 0.0 mm 0 W/m2
06:39 6.3 °C 5.6 °C 1031.5 hPa Calm   1.6 km/h 95% 0.0 mm 0 W/m2
06:44 6.3 °C 5.6 °C 1031.5 hPa Calm     95% 0.0 mm 0 W/m2
06:49 6.3 °C 5.6 °C 1031.5 hPa Calm     95% 0.0 mm 0 W/m2
06:54 6.4 °C 5.7 °C 1031.5 hPa NW 3.2 km/h 4.8 km/h 95% 0.0 mm 0 W/m2
06:59 6.3 °C 5.6 °C 1031.5 hPa Calm   1.6 km/h 95% 0.0 mm 0 W/m2
07:04 6.4 °C 5.7 °C 1031.5 hPa NW 1.4 km/h 4.8 km/h 95% 0.0 mm 0 W/m2
07:09 6.3 °C 5.6 °C 1031.5 hPa NNW 3.2 km/h 4.8 km/h 95% 0.0 mm 0 W/m2
07:14 6.4 °C 5.7 °C 1031.5 hPa Calm     95% 0.0 mm 0 W/m2
07:19 6.4 °C 5.7 °C 1031.5 hPa Calm     95% 0.0 mm 0 W/m2
07:24 6.4 °C 5.7 °C 1031.8 hPa Calm     95% 0.0 mm 0 W/m2
07:29 6.4 °C 5.7 °C 1031.5 hPa Calm   3.2 km/h 95% 0.0 mm 0 W/m2
07:34 6.4 °C 5.7 °C 1031.8 hPa Calm   3.2 km/h 95% 0.0 mm 0 W/m2
07:39 6.4 °C 5.7 °C 1031.8 hPa Calm   6.4 km/h 95% 0.0 mm 0 W/m2
07:44 6.4 °C 5.7 °C 1031.8 hPa NNE 1.4 km/h 3.2 km/h 95% 0.0 mm 0 W/m2
07:49 6.4 °C 5.7 °C 1031.8 hPa NNW 1.4 km/h 3.2 km/h 95% 0.0 mm 0 W/m2
07:54 6.4 °C 5.7 °C 1031.8 hPa Calm     95% 0.0 mm 0 W/m2
07:59 6.4 °C 5.7 °C 1031.8 hPa Calm     95% 0.0 mm 0 W/m2
08:04 6.4 °C 5.7 °C 1031.8 hPa Calm     95% 0.0 mm 0 W/m2
08:09 6.4 °C 5.7 °C 1032.2 hPa Calm     95% 0.0 mm 0 W/m2
08:14 6.4 °C 5.7 °C 1032.2 hPa Calm     95% 0.0 mm 5 W/m2
08:19 6.4 °C 5.7 °C 1032.2 hPa Calm     95% 0.0 mm 7 W/m2
08:24 6.5 °C 5.8 °C 1031.8 hPa Calm   4.8 km/h 95% 0.0 mm 11 W/m2
08:29 6.5 °C 5.8 °C 1031.8 hPa WNW 7.9 km/h 12.9 km/h 95% 0.0 mm 14 W/m2
08:34 6.5 °C 5.8 °C 1031.8 hPa WNW 4.7 km/h 6.4 km/h 95% 0.0 mm 16 W/m2
08:39 6.6 °C 5.9 °C 1032.2 hPa Calm   3.2 km/h 95% 0.0 mm 16 W/m2
08:44 6.6 °C 5.9 °C 1032.2 hPa WNW 1.4 km/h 6.4 km/h 95% 0.0 mm 16 W/m2
08:49 6.6 °C 5.9 °C 1032.2 hPa WNW 3.2 km/h 3.2 km/h 95% 0.0 mm 16 W/m2
08:54 6.6 °C 5.9 °C 1032.2 hPa WNW 1.4 km/h 3.2 km/h 95% 0.0 mm 19 W/m2
08:59 6.6 °C 5.9 °C 1032.2 hPa Calm   1.6 km/h 95% 0.0 mm 21 W/m2
09:04 6.6 °C 5.9 °C 1032.2 hPa Calm     95% 0.0 mm 25 W/m2
09:09 6.7 °C 6 °C 1032.5 hPa Calm     95% 0.0 mm 26 W/m2
09:14 6.7 °C 6 °C 1032.2 hPa Calm     95% 0.0 mm 30 W/m2
Juneau County Weather
Compliments of Weather Underground - 2 mb